owner,sensor,date,latitude,longitude,air_pressure(mBar),qcFlag 
WAVCIS,ioos:station:WAVCIS:CSI03:1,2016-12-01T00:00:00Z,29.4412,-92.0613,1009.33,11111222 
WAVCIS,ioos:station:WAVCIS:CSI03:1,2016-12-01T01:00:00Z,29.4412,-92.0613,1010.14,11111222 
WAVCIS,ioos:station:WAVCIS:CSI03:1,2016-12-01T02:00:00Z,29.4412,-92.0613,1010.52,11111222 
WAVCIS,ioos:station:WAVCIS:CSI03:1,2016-12-01T03:00:00Z,29.4412,-92.0613,1011.09,11111222 
WAVCIS,ioos:station:WAVCIS:CSI03:1,2016-12-01T04:00:00Z,29.4412,-92.0613,1011.45,11111222 
WAVCIS,ioos:station:WAVCIS:CSI03:1,2016-12-01T05:00:00Z,29.4412,-92.0613,1011.88,11111222 
WAVCIS,ioos:station:WAVCIS:CSI03:1,2016-12-01T06:00:00Z,29.4412,-92.0613,1012.03,11111222 
WAVCIS,ioos:station:WAVCIS:CSI03:1,2016-12-01T07:00:00Z,29.4412,-92.0613,1012.17,11111222 
WAVCIS,ioos:station:WAVCIS:CSI03:1,2016-12-01T08:00:00Z,29.4412,-92.0613,1012.15,11111222 
WAVCIS,ioos:station:WAVCIS:CSI03:1,2016-12-01T09:00:00Z,29.4412,-92.0613,1012.21,11111222 
WAVCIS,ioos:station:WAVCIS:CSI03:1,2016-12-01T10:00:00Z,29.4412,-92.0613,1012.65,11111222 
WAVCIS,ioos:station:WAVCIS:CSI03:1,2016-12-01T11:00:00Z,29.4412,-92.0613,1012.67,11111222 
WAVCIS,ioos:station:WAVCIS:CSI03:1,2016-12-01T12:00:00Z,29.4412,-92.0613,1013.03,11111222 
WAVCIS,ioos:station:WAVCIS:CSI03:1,2016-12-01T13:00:00Z,29.4412,-92.0613,1013.74,11111222 
WAVCIS,ioos:station:WAVCIS:CSI03:1,2016-12-01T14:00:00Z,29.4412,-92.0613,1014.69,11111222 
WAVCIS,ioos:station:WAVCIS:CSI03:1,2016-12-01T15:00:00Z,29.4412,-92.0613,1015.1,11111222 
WAVCIS,ioos:station:WAVCIS:CSI03:1,2016-12-01T16:00:00Z,29.4412,-92.0613,1015.35,11111222 
WAVCIS,ioos:station:WAVCIS:CSI03:1,2016-12-01T17:00:00Z,29.4412,-92.0613,1014.8,11111222 
WAVCIS,ioos:station:WAVCIS:CSI03:1,2016-12-01T18:00:00Z,29.4412,-92.0613,1014.23,11111222 
WAVCIS,ioos:station:WAVCIS:CSI03:1,2016-12-01T19:00:00Z,29.4412,-92.0613,1013.59,11111222 
WAVCIS,ioos:station:WAVCIS:CSI03:1,2016-12-01T20:00:00Z,29.4412,-92.0613,1012.88,11111222 
WAVCIS,ioos:station:WAVCIS:CSI03:1,2016-12-01T21:00:00Z,29.4412,-92.0613,1012.32,11111222 
WAVCIS,ioos:station:WAVCIS:CSI03:1,2016-12-01T22:00:00Z,29.4412,-92.0613,1012.21,11111222 
WAVCIS,ioos:station:WAVCIS:CSI03:1,2016-12-01T23:00:00Z,29.4412,-92.0613,1012.17,11111222 
WAVCIS,ioos:station:WAVCIS:CSI03:1,2016-12-02T00:00:00Z,29.4412,-92.0613,1012.37,11111222 
WAVCIS,ioos:station:WAVCIS:CSI03:1,2016-12-02T01:00:00Z,29.4412,-92.0613,1012.51,11111222 
WAVCIS,ioos:station:WAVCIS:CSI03:1,2016-12-02T02:00:00Z,29.4412,-92.0613,1012.99,11111222 
WAVCIS,ioos:station:WAVCIS:CSI03:1,2016-12-02T03:00:00Z,29.4412,-92.0613,1013.14,11111222 
WAVCIS,ioos:station:WAVCIS:CSI03:1,2016-12-02T04:00:00Z,29.4412,-92.0613,1013.5,11111222 
WAVCIS,ioos:station:WAVCIS:CSI03:1,2016-12-02T05:00:00Z,29.4412,-92.0613,1013.56,11111222 
WAVCIS,ioos:station:WAVCIS:CSI03:1,2016-12-02T06:00:00Z,29.4412,-92.0613,1013.63,11111222 
WAVCIS,ioos:station:WAVCIS:CSI03:1,2016-12-02T07:00:00Z,29.4412,-92.0613,1013.13,11111222 
WAVCIS,ioos:station:WAVCIS:CSI03:1,2016-12-02T08:00:00Z,29.4412,-92.0613,1013.21,11111222 
WAVCIS,ioos:station:WAVCIS:CSI03:1,2016-12-02T09:00:00Z,29.4412,-92.0613,1013.31,11111222 
WAVCIS,ioos:station:WAVCIS:CSI03:1,2016-12-02T10:00:00Z,29.4412,-92.0613,1013.44,11111222 
WAVCIS,ioos:station:WAVCIS:CSI03:1,2016-12-02T11:00:00Z,29.4412,-92.0613,1013.59,11111222 
WAVCIS,ioos:station:WAVCIS:CSI03:1,2016-12-02T12:00:00Z,29.4412,-92.0613,1014.24,11111222 
WAVCIS,ioos:station:WAVCIS:CSI03:1,2016-12-02T13:00:00Z,29.4412,-92.0613,1014.58,11111222 
WAVCIS,ioos:station:WAVCIS:CSI03:1,2016-12-02T14:00:00Z,29.4412,-92.0613,1014.94,11111222 
WAVCIS,ioos:station:WAVCIS:CSI03:1,2016-12-02T15:00:00Z,29.4412,-92.0613,1015.3,11111222 
WAVCIS,ioos:station:WAVCIS:CSI03:1,2016-12-02T16:00:00Z,29.4412,-92.0613,1015.08,11111222 
WAVCIS,ioos:station:WAVCIS:CSI03:1,2016-12-02T17:00:00Z,29.4412,-92.0613,1014.75,11111222 
WAVCIS,ioos:station:WAVCIS:CSI03:1,2016-12-02T18:00:00Z,29.4412,-92.0613,1013.99,11111222 
WAVCIS,ioos:station:WAVCIS:CSI03:1,2016-12-02T19:00:00Z,29.4412,-92.0613,1013.19,11111222 
WAVCIS,ioos:station:WAVCIS:CSI03:1,2016-12-02T20:00:00Z,29.4412,-92.0613,1012.59,11111222 
WAVCIS,ioos:station:WAVCIS:CSI03:1,2016-12-02T21:00:00Z,29.4412,-92.0613,1012.39,11111222 
WAVCIS,ioos:station:WAVCIS:CSI03:1,2016-12-02T22:00:00Z,29.4412,-92.0613,1014.01,11111222 
WAVCIS,ioos:station:WAVCIS:CSI03:1,2016-12-02T23:00:00Z,29.4412,-92.0613,1012.95,11111222 
WAVCIS,ioos:station:WAVCIS:CSI03:1,2016-12-03T00:00:00Z,29.4412,-92.0613,1013.17,11111222 
WAVCIS,ioos:station:WAVCIS:CSI03:1,2016-12-03T01:00:00Z,29.4412,-92.0613,1012.39,11111222 
WAVCIS,ioos:station:WAVCIS:CSI03:1,2016-12-03T02:00:00Z,29.4412,-92.0613,1012.67,11111222 
WAVCIS,ioos:station:WAVCIS:CSI03:1,2016-12-03T03:00:00Z,29.4412,-92.0613,1013.39,11111222 
WAVCIS,ioos:station:WAVCIS:CSI03:1,2016-12-03T04:00:00Z,29.4412,-92.0613,1012.82,11111222 
WAVCIS,ioos:station:WAVCIS:CSI03:1,2016-12-03T05:00:00Z,29.4412,-92.0613,1013.12,11111222 
WAVCIS,ioos:station:WAVCIS:CSI03:1,2016-12-03T06:00:00Z,29.4412,-92.0613,1013.04,11111222 
WAVCIS,ioos:station:WAVCIS:CSI03:1,2016-12-03T07:00:00Z,29.4412,-92.0613,1011.7,11111222 
WAVCIS,ioos:station:WAVCIS:CSI03:1,2016-12-03T08:00:00Z,29.4412,-92.0613,1011.16,11111222 
WAVCIS,ioos:station:WAVCIS:CSI03:1,2016-12-03T09:00:00Z,29.4412,-92.0613,1010.49,11111222 
WAVCIS,ioos:station:WAVCIS:CSI03:1,2016-12-03T10:00:00Z,29.4412,-92.0613,1010.32,11111222 
WAVCIS,ioos:station:WAVCIS:CSI03:1,2016-12-03T11:00:00Z,29.4412,-92.0613,1009.93,11111222 
WAVCIS,ioos:station:WAVCIS:CSI03:1,2016-12-03T12:00:00Z,29.4412,-92.0613,1010.16,11111222 
WAVCIS,ioos:station:WAVCIS:CSI03:1,2016-12-03T13:00:00Z,29.4412,-92.0613,1010.45,11111222 
WAVCIS,ioos:station:WAVCIS:CSI03:1,2016-12-03T14:00:00Z,29.4412,-92.0613,1010.39,11111222 
WAVCIS,ioos:station:WAVCIS:CSI03:1,2016-12-03T15:00:00Z,29.4412,-92.0613,1010.49,11111222 
WAVCIS,ioos:station:WAVCIS:CSI03:1,2016-12-03T16:00:00Z,29.4412,-92.0613,1010.48,11111222 
WAVCIS,ioos:station:WAVCIS:CSI03:1,2016-12-03T17:00:00Z,29.4412,-92.0613,1008.12,11111222 
WAVCIS,ioos:station:WAVCIS:CSI03:1,2016-12-03T18:00:00Z,29.4412,-92.0613,1006.27,11111222 
WAVCIS,ioos:station:WAVCIS:CSI03:1,2016-12-03T19:00:00Z,29.4412,-92.0613,1005.37,11111222 
WAVCIS,ioos:station:WAVCIS:CSI03:1,2016-12-03T20:00:00Z,29.4412,-92.0613,1005.73,11111222 
WAVCIS,ioos:station:WAVCIS:CSI03:1,2016-12-03T21:00:00Z,29.4412,-92.0613,1006.17,11111222 
WAVCIS,ioos:station:WAVCIS:CSI03:1,2016-12-03T22:00:00Z,29.4412,-92.0613,1005.81,11111222 
WAVCIS,ioos:station:WAVCIS:CSI03:1,2016-12-03T23:00:00Z,29.4412,-92.0613,1005.2,11111222 
WAVCIS,ioos:station:WAVCIS:CSI03:1,2016-12-04T00:00:00Z,29.4412,-92.0613,1005.73,11111222 
WAVCIS,ioos:station:WAVCIS:CSI03:1,2016-12-04T01:00:00Z,29.4412,-92.0613,1005.73,11111222 
WAVCIS,ioos:station:WAVCIS:CSI03:1,2016-12-04T02:00:00Z,29.4412,-92.0613,1004.96,11111222 
WAVCIS,ioos:station:WAVCIS:CSI03:1,2016-12-04T03:00:00Z,29.4412,-92.0613,1005.02,11111222 
WAVCIS,ioos:station:WAVCIS:CSI03:1,2016-12-04T04:00:00Z,29.4412,-92.0613,1004.81,11111222 
WAVCIS,ioos:station:WAVCIS:CSI03:1,2016-12-04T05:00:00Z,29.4412,-92.0613,1004.84,11111222 
WAVCIS,ioos:station:WAVCIS:CSI03:1,2016-12-04T06:00:00Z,29.4412,-92.0613,1004.48,11111222 
WAVCIS,ioos:station:WAVCIS:CSI03:1,2016-12-04T07:00:00Z,29.4412,-92.0613,1004.63,11111222 
WAVCIS,ioos:station:WAVCIS:CSI03:1,2016-12-04T08:00:00Z,29.4412,-92.0613,1004.92,11111222 
WAVCIS,ioos:station:WAVCIS:CSI03:1,2016-12-04T09:00:00Z,29.4412,-92.0613,1005.12,11111222 
WAVCIS,ioos:station:WAVCIS:CSI03:1,2016-12-04T10:00:00Z,29.4412,-92.0613,1004.99,11111222 
WAVCIS,ioos:station:WAVCIS:CSI03:1,2016-12-04T11:00:00Z,29.4412,-92.0613,1004.89,11111222 
WAVCIS,ioos:station:WAVCIS:CSI03:1,2016-12-04T12:00:00Z,29.4412,-92.0613,1005.36,11111222 
WAVCIS,ioos:station:WAVCIS:CSI03:1,2016-12-04T13:00:00Z,29.4412,-92.0613,1006.29,11111222 
WAVCIS,ioos:station:WAVCIS:CSI03:1,2016-12-04T14:00:00Z,29.4412,-92.0613,1005.48,11111222 
WAVCIS,ioos:station:WAVCIS:CSI03:1,2016-12-04T15:00:00Z,29.4412,-92.0613,1006.89,11111222 
WAVCIS,ioos:station:WAVCIS:CSI03:1,2016-12-04T16:00:00Z,29.4412,-92.0613,1006.91,11111222 
WAVCIS,ioos:station:WAVCIS:CSI03:1,2016-12-04T17:00:00Z,29.4412,-92.0613,1007.91,11111222 
WAVCIS,ioos:station:WAVCIS:CSI03:1,2016-12-04T18:00:00Z,29.4412,-92.0613,1006.9,11111222 
WAVCIS,ioos:station:WAVCIS:CSI03:1,2016-12-04T19:00:00Z,29.4412,-92.0613,1005.69,11111222 
WAVCIS,ioos:station:WAVCIS:CSI03:1,2016-12-04T20:00:00Z,29.4412,-92.0613,1005.66,11111222 
WAVCIS,ioos:station:WAVCIS:CSI03:1,2016-12-04T21:00:00Z,29.4412,-92.0613,1005.14,11111222 
WAVCIS,ioos:station:WAVCIS:CSI03:1,2016-12-04T22:00:00Z,29.4412,-92.0613,1006.83,11111222 
WAVCIS,ioos:station:WAVCIS:CSI03:1,2016-12-04T23:00:00Z,29.4412,-92.0613,1008.23,11111222 
WAVCIS,ioos:station:WAVCIS:CSI03:1,2016-12-05T00:00:00Z,29.4412,-92.0613,1007.5,11111222 
WAVCIS,ioos:station:WAVCIS:CSI03:1,2016-12-05T01:00:00Z,29.4412,-92.0613,1007.27,11111222 
WAVCIS,ioos:station:WAVCIS:CSI03:1,2016-12-05T02:00:00Z,29.4412,-92.0613,1007.42,11111222 
WAVCIS,ioos:station:WAVCIS:CSI03:1,2016-12-05T03:00:00Z,29.4412,-92.0613,1007.22,11111222 
WAVCIS,ioos:station:WAVCIS:CSI03:1,2016-12-05T04:00:00Z,29.4412,-92.0613,1006.06,11111222 
WAVCIS,ioos:station:WAVCIS:CSI03:1,2016-12-05T05:00:00Z,29.4412,-92.0613,1005.89,11111222 
WAVCIS,ioos:station:WAVCIS:CSI03:1,2016-12-05T06:00:00Z,29.4412,-92.0613,1006.62,11111222 
WAVCIS,ioos:station:WAVCIS:CSI03:1,2016-12-05T07:00:00Z,29.4412,-92.0613,1006.27,11111222 
WAVCIS,ioos:station:WAVCIS:CSI03:1,2016-12-05T08:00:00Z,29.4412,-92.0613,1005.87,11111222 
WAVCIS,ioos:station:WAVCIS:CSI03:1,2016-12-05T09:00:00Z,29.4412,-92.0613,1005.67,11111222 
WAVCIS,ioos:station:WAVCIS:CSI03:1,2016-12-05T10:00:00Z,29.4412,-92.0613,1004.71,11111222 
WAVCIS,ioos:station:WAVCIS:CSI03:1,2016-12-05T11:00:00Z,29.4412,-92.0613,1004.69,11111222 
WAVCIS,ioos:station:WAVCIS:CSI03:1,2016-12-05T12:00:00Z,29.4412,-92.0613,1004.37,11111222 
WAVCIS,ioos:station:WAVCIS:CSI03:1,2016-12-05T13:00:00Z,29.4412,-92.0613,1004.03,11111222 
WAVCIS,ioos:station:WAVCIS:CSI03:1,2016-12-05T14:00:00Z,29.4412,-92.0613,1003.051,11111222 
WAVCIS,ioos:station:WAVCIS:CSI03:1,2016-12-05T15:00:00Z,29.4412,-92.0613,1003.14,11111222 
WAVCIS,ioos:station:WAVCIS:CSI03:1,2016-12-05T16:00:00Z,29.4412,-92.0613,1004.28,11111222 
WAVCIS,ioos:station:WAVCIS:CSI03:1,2016-12-05T17:00:00Z,29.4412,-92.0613,1003.056,11111222 
WAVCIS,ioos:station:WAVCIS:CSI03:1,2016-12-05T18:00:00Z,29.4412,-92.0613,1001.456,11111222 
WAVCIS,ioos:station:WAVCIS:CSI03:1,2016-12-05T19:00:00Z,29.4412,-92.0613,1000.82,11111222 
WAVCIS,ioos:station:WAVCIS:CSI03:1,2016-12-05T20:00:00Z,29.4412,-92.0613,999.465,11111222 
WAVCIS,ioos:station:WAVCIS:CSI03:1,2016-12-05T21:00:00Z,29.4412,-92.0613,998.842,11111222 
WAVCIS,ioos:station:WAVCIS:CSI03:1,2016-12-05T22:00:00Z,29.4412,-92.0613,998.394,11111222 
WAVCIS,ioos:station:WAVCIS:CSI03:1,2016-12-05T23:00:00Z,29.4412,-92.0613,997.953,11111222 
WAVCIS,ioos:station:WAVCIS:CSI03:1,2016-12-06T00:00:00Z,29.4412,-92.0613,997.865,11111222 
WAVCIS,ioos:station:WAVCIS:CSI03:1,2016-12-06T01:00:00Z,29.4412,-92.0613,997.997,11111222 
WAVCIS,ioos:station:WAVCIS:CSI03:1,2016-12-06T02:00:00Z,29.4412,-92.0613,998.514,11111222 
WAVCIS,ioos:station:WAVCIS:CSI03:1,2016-12-06T03:00:00Z,29.4412,-92.0613,999.779,11111222 
WAVCIS,ioos:station:WAVCIS:CSI03:1,2016-12-06T04:00:00Z,29.4412,-92.0613,1000.908,11111222 
WAVCIS,ioos:station:WAVCIS:CSI03:1,2016-12-06T05:00:00Z,29.4412,-92.0613,1001.679,11111222 
WAVCIS,ioos:station:WAVCIS:CSI03:1,2016-12-06T06:00:00Z,29.4412,-92.0613,1001.826,11111222 
WAVCIS,ioos:station:WAVCIS:CSI03:1,2016-12-06T07:00:00Z,29.4412,-92.0613,1002.034,11111222 
WAVCIS,ioos:station:WAVCIS:CSI03:1,2016-12-06T08:00:00Z,29.4412,-92.0613,1002.38,11111222 
WAVCIS,ioos:station:WAVCIS:CSI03:1,2016-12-06T09:00:00Z,29.4412,-92.0613,1003.38,11111222 
WAVCIS,ioos:station:WAVCIS:CSI03:1,2016-12-06T10:00:00Z,29.4412,-92.0613,1004.49,11111222 
WAVCIS,ioos:station:WAVCIS:CSI03:1,2016-12-06T11:00:00Z,29.4412,-92.0613,1004.56,11111222 
WAVCIS,ioos:station:WAVCIS:CSI03:1,2016-12-06T12:00:00Z,29.4412,-92.0613,1005.3,11111222 
WAVCIS,ioos:station:WAVCIS:CSI03:1,2016-12-06T13:00:00Z,29.4412,-92.0613,1006.15,11111222 
WAVCIS,ioos:station:WAVCIS:CSI03:1,2016-12-06T14:00:00Z,29.4412,-92.0613,1007.0,11111222 
WAVCIS,ioos:station:WAVCIS:CSI03:1,2016-12-06T15:00:00Z,29.4412,-92.0613,1007.57,11111222 
WAVCIS,ioos:station:WAVCIS:CSI03:1,2016-12-06T16:00:00Z,29.4412,-92.0613,1008.53,11111222 
WAVCIS,ioos:station:WAVCIS:CSI03:1,2016-12-06T17:00:00Z,29.4412,-92.0613,1008.48,11111222 
WAVCIS,ioos:station:WAVCIS:CSI03:1,2016-12-06T18:00:00Z,29.4412,-92.0613,1007.92,11111222 
WAVCIS,ioos:station:WAVCIS:CSI03:1,2016-12-06T19:00:00Z,29.4412,-92.0613,1007.47,11111222 
WAVCIS,ioos:station:WAVCIS:CSI03:1,2016-12-06T20:00:00Z,29.4412,-92.0613,1007.18,11111222 
WAVCIS,ioos:station:WAVCIS:CSI03:1,2016-12-06T21:00:00Z,29.4412,-92.0613,1007.02,11111222 
WAVCIS,ioos:station:WAVCIS:CSI03:1,2016-12-06T22:00:00Z,29.4412,-92.0613,1007.78,11111222 
WAVCIS,ioos:station:WAVCIS:CSI03:1,2016-12-06T23:00:00Z,29.4412,-92.0613,1008.11,11111222 
WAVCIS,ioos:station:WAVCIS:CSI03:1,2016-12-07T00:00:00Z,29.4412,-92.0613,1008.85,11111222 
WAVCIS,ioos:station:WAVCIS:CSI03:1,2016-12-07T01:00:00Z,29.4412,-92.0613,1009.29,11111222 
WAVCIS,ioos:station:WAVCIS:CSI03:1,2016-12-07T02:00:00Z,29.4412,-92.0613,1009.43,11111222 
WAVCIS,ioos:station:WAVCIS:CSI03:1,2016-12-07T03:00:00Z,29.4412,-92.0613,1009.64,11111222 
WAVCIS,ioos:station:WAVCIS:CSI03:1,2016-12-07T04:00:00Z,29.4412,-92.0613,1009.96,11111222 
WAVCIS,ioos:station:WAVCIS:CSI03:1,2016-12-07T05:00:00Z,29.4412,-92.0613,1010.09,11111222 
WAVCIS,ioos:station:WAVCIS:CSI03:1,2016-12-07T06:00:00Z,29.4412,-92.0613,1009.96,11111222 
WAVCIS,ioos:station:WAVCIS:CSI03:1,2016-12-07T07:00:00Z,29.4412,-92.0613,1010.22,11111222 
WAVCIS,ioos:station:WAVCIS:CSI03:1,2016-12-07T08:00:00Z,29.4412,-92.0613,1010.07,11111222 
WAVCIS,ioos:station:WAVCIS:CSI03:1,2016-12-07T09:00:00Z,29.4412,-92.0613,1010.41,11111222 
WAVCIS,ioos:station:WAVCIS:CSI03:1,2016-12-07T10:00:00Z,29.4412,-92.0613,1010.59,11111222 
WAVCIS,ioos:station:WAVCIS:CSI03:1,2016-12-07T11:00:00Z,29.4412,-92.0613,1010.95,11111222 
WAVCIS,ioos:station:WAVCIS:CSI03:1,2016-12-07T12:00:00Z,29.4412,-92.0613,1011.37,11111222 
WAVCIS,ioos:station:WAVCIS:CSI03:1,2016-12-07T13:00:00Z,29.4412,-92.0613,1012.11,11111222 
WAVCIS,ioos:station:WAVCIS:CSI03:1,2016-12-07T14:00:00Z,29.4412,-92.0613,1012.74,11111222 
WAVCIS,ioos:station:WAVCIS:CSI03:1,2016-12-07T15:00:00Z,29.4412,-92.0613,1013.32,11111222 
WAVCIS,ioos:station:WAVCIS:CSI03:1,2016-12-07T16:00:00Z,29.4412,-92.0613,1013.56,11111222 
WAVCIS,ioos:station:WAVCIS:CSI03:1,2016-12-07T17:00:00Z,29.4412,-92.0613,1013.48,11111222 
WAVCIS,ioos:station:WAVCIS:CSI03:1,2016-12-07T18:00:00Z,29.4412,-92.0613,1012.71,11111222 
WAVCIS,ioos:station:WAVCIS:CSI03:1,2016-12-07T19:00:00Z,29.4412,-92.0613,1012.02,11111222 
WAVCIS,ioos:station:WAVCIS:CSI03:1,2016-12-07T20:00:00Z,29.4412,-92.0613,1011.82,11111222 
WAVCIS,ioos:station:WAVCIS:CSI03:1,2016-12-07T21:00:00Z,29.4412,-92.0613,1011.6,11111222 
WAVCIS,ioos:station:WAVCIS:CSI03:1,2016-12-07T22:00:00Z,29.4412,-92.0613,1011.68,11111222 
WAVCIS,ioos:station:WAVCIS:CSI03:1,2016-12-07T23:00:00Z,29.4412,-92.0613,1012.3,11111222 
WAVCIS,ioos:station:WAVCIS:CSI03:1,2016-12-08T00:00:00Z,29.4412,-92.0613,1012.95,11111222 
WAVCIS,ioos:station:WAVCIS:CSI03:1,2016-12-08T01:00:00Z,29.4412,-92.0613,1013.78,11111222 
WAVCIS,ioos:station:WAVCIS:CSI03:1,2016-12-08T02:00:00Z,29.4412,-92.0613,1014.12,11111222 
WAVCIS,ioos:station:WAVCIS:CSI03:1,2016-12-08T03:00:00Z,29.4412,-92.0613,1014.55,11111222 
WAVCIS,ioos:station:WAVCIS:CSI03:1,2016-12-08T04:00:00Z,29.4412,-92.0613,1014.72,11111222 
WAVCIS,ioos:station:WAVCIS:CSI03:1,2016-12-08T05:00:00Z,29.4412,-92.0613,1014.37,11111222 
WAVCIS,ioos:station:WAVCIS:CSI03:1,2016-12-08T06:00:00Z,29.4412,-92.0613,1013.84,11111222 
WAVCIS,ioos:station:WAVCIS:CSI03:1,2016-12-08T07:00:00Z,29.4412,-92.0613,1014.1,11111222 
WAVCIS,ioos:station:WAVCIS:CSI03:1,2016-12-08T08:00:00Z,29.4412,-92.0613,1014.21,11111222 
WAVCIS,ioos:station:WAVCIS:CSI03:1,2016-12-08T09:00:00Z,29.4412,-92.0613,1014.68,11111222 
WAVCIS,ioos:station:WAVCIS:CSI03:1,2016-12-08T10:00:00Z,29.4412,-92.0613,1015.06,11111222 
WAVCIS,ioos:station:WAVCIS:CSI03:1,2016-12-08T11:00:00Z,29.4412,-92.0613,1015.73,11111222 
WAVCIS,ioos:station:WAVCIS:CSI03:1,2016-12-08T12:00:00Z,29.4412,-92.0613,1016.7,11111222 
WAVCIS,ioos:station:WAVCIS:CSI03:1,2016-12-08T13:00:00Z,29.4412,-92.0613,1017.74,11111222 
WAVCIS,ioos:station:WAVCIS:CSI03:1,2016-12-08T14:00:00Z,29.4412,-92.0613,1018.74,11111222 
WAVCIS,ioos:station:WAVCIS:CSI03:1,2016-12-08T15:00:00Z,29.4412,-92.0613,1019.71,11111222 
WAVCIS,ioos:station:WAVCIS:CSI03:1,2016-12-08T16:00:00Z,29.4412,-92.0613,1020.27,11111222 
WAVCIS,ioos:station:WAVCIS:CSI03:1,2016-12-08T17:00:00Z,29.4412,-92.0613,1020.64,11111222 
WAVCIS,ioos:station:WAVCIS:CSI03:1,2016-12-08T18:00:00Z,29.4412,-92.0613,1019.74,11111222 
WAVCIS,ioos:station:WAVCIS:CSI03:1,2016-12-08T19:00:00Z,29.4412,-92.0613,1019.6,11111222 
WAVCIS,ioos:station:WAVCIS:CSI03:1,2016-12-08T20:00:00Z,29.4412,-92.0613,1019.91,11111222 
WAVCIS,ioos:station:WAVCIS:CSI03:1,2016-12-08T21:00:00Z,29.4412,-92.0613,1020.1,11111222 
WAVCIS,ioos:station:WAVCIS:CSI03:1,2016-12-08T22:00:00Z,29.4412,-92.0613,1021.19,11111222 
WAVCIS,ioos:station:WAVCIS:CSI03:1,2016-12-08T23:00:00Z,29.4412,-92.0613,1021.42,11111222 
WAVCIS,ioos:station:WAVCIS:CSI03:1,2016-12-09T00:00:00Z,29.4412,-92.0613,1022.1,11111222 
WAVCIS,ioos:station:WAVCIS:CSI03:1,2016-12-09T01:00:00Z,29.4412,-92.0613,1023.13,11111222 
WAVCIS,ioos:station:WAVCIS:CSI03:1,2016-12-09T02:00:00Z,29.4412,-92.0613,1023.85,11111222 
WAVCIS,ioos:station:WAVCIS:CSI03:1,2016-12-09T03:00:00Z,29.4412,-92.0613,1023.94,11111222 
WAVCIS,ioos:station:WAVCIS:CSI03:1,2016-12-09T04:00:00Z,29.4412,-92.0613,1025.22,11111222 
WAVCIS,ioos:station:WAVCIS:CSI03:1,2016-12-09T05:00:00Z,29.4412,-92.0613,1025.4,11111222 
WAVCIS,ioos:station:WAVCIS:CSI03:1,2016-12-09T06:00:00Z,29.4412,-92.0613,1025.31,11111222 
WAVCIS,ioos:station:WAVCIS:CSI03:1,2016-12-09T07:00:00Z,29.4412,-92.0613,1025.2,11111222 
WAVCIS,ioos:station:WAVCIS:CSI03:1,2016-12-09T08:00:00Z,29.4412,-92.0613,1025.03,11111222 
WAVCIS,ioos:station:WAVCIS:CSI03:1,2016-12-09T09:00:00Z,29.4412,-92.0613,1025.35,11111222 
WAVCIS,ioos:station:WAVCIS:CSI03:1,2016-12-09T10:00:00Z,29.4412,-92.0613,1025.8,11111222 
WAVCIS,ioos:station:WAVCIS:CSI03:1,2016-12-09T11:00:00Z,29.4412,-92.0613,1025.57,11111222 
WAVCIS,ioos:station:WAVCIS:CSI03:1,2016-12-09T12:00:00Z,29.4412,-92.0613,1026.41,11111222 
WAVCIS,ioos:station:WAVCIS:CSI03:1,2016-12-09T13:00:00Z,29.4412,-92.0613,1027.26,11111222 
WAVCIS,ioos:station:WAVCIS:CSI03:1,2016-12-09T14:00:00Z,29.4412,-92.0613,1027.45,11111222 
WAVCIS,ioos:station:WAVCIS:CSI03:1,2016-12-09T15:00:00Z,29.4412,-92.0613,1028.17,11111222 
WAVCIS,ioos:station:WAVCIS:CSI03:1,2016-12-09T16:00:00Z,29.4412,-92.0613,1028.38,11111222 
WAVCIS,ioos:station:WAVCIS:CSI03:1,2016-12-09T17:00:00Z,29.4412,-92.0613,1028.28,11111222 
WAVCIS,ioos:station:WAVCIS:CSI03:1,2016-12-09T18:00:00Z,29.4412,-92.0613,1026.89,11111222 
WAVCIS,ioos:station:WAVCIS:CSI03:1,2016-12-09T19:00:00Z,29.4412,-92.0613,1025.73,11111222 
WAVCIS,ioos:station:WAVCIS:CSI03:1,2016-12-09T20:00:00Z,29.4412,-92.0613,1025.47,11111222 
WAVCIS,ioos:station:WAVCIS:CSI03:1,2016-12-09T21:00:00Z,29.4412,-92.0613,1025.56,11111222 
WAVCIS,ioos:station:WAVCIS:CSI03:1,2016-12-09T22:00:00Z,29.4412,-92.0613,1025.66,11111222 
WAVCIS,ioos:station:WAVCIS:CSI03:1,2016-12-09T23:00:00Z,29.4412,-92.0613,1025.83,11111222 
WAVCIS,ioos:station:WAVCIS:CSI03:1,2016-12-10T00:00:00Z,29.4412,-92.0613,1025.87,11111222 
WAVCIS,ioos:station:WAVCIS:CSI03:1,2016-12-10T01:00:00Z,29.4412,-92.0613,1026.32,11111222 
WAVCIS,ioos:station:WAVCIS:CSI03:1,2016-12-10T02:00:00Z,29.4412,-92.0613,1026.06,11111222 
WAVCIS,ioos:station:WAVCIS:CSI03:1,2016-12-10T03:00:00Z,29.4412,-92.0613,1026.29,11111222 
WAVCIS,ioos:station:WAVCIS:CSI03:1,2016-12-10T04:00:00Z,29.4412,-92.0613,1026.88,11111222 
WAVCIS,ioos:station:WAVCIS:CSI03:1,2016-12-10T05:00:00Z,29.4412,-92.0613,1026.97,11111222 
WAVCIS,ioos:station:WAVCIS:CSI03:1,2016-12-10T06:00:00Z,29.4412,-92.0613,1026.68,11111222 
WAVCIS,ioos:station:WAVCIS:CSI03:1,2016-12-10T07:00:00Z,29.4412,-92.0613,1026.5,11111222 
WAVCIS,ioos:station:WAVCIS:CSI03:1,2016-12-10T08:00:00Z,29.4412,-92.0613,1026.49,11111222 
WAVCIS,ioos:station:WAVCIS:CSI03:1,2016-12-10T09:00:00Z,29.4412,-92.0613,1026.58,11111222 
WAVCIS,ioos:station:WAVCIS:CSI03:1,2016-12-10T10:00:00Z,29.4412,-92.0613,1026.34,11111222 
WAVCIS,ioos:station:WAVCIS:CSI03:1,2016-12-10T11:00:00Z,29.4412,-92.0613,1025.92,11111222 
WAVCIS,ioos:station:WAVCIS:CSI03:1,2016-12-10T12:00:00Z,29.4412,-92.0613,1026.1,11111222 
WAVCIS,ioos:station:WAVCIS:CSI03:1,2016-12-10T13:00:00Z,29.4412,-92.0613,1026.57,11111222 
WAVCIS,ioos:station:WAVCIS:CSI03:1,2016-12-10T14:00:00Z,29.4412,-92.0613,1026.67,11111222 
WAVCIS,ioos:station:WAVCIS:CSI03:1,2016-12-10T15:00:00Z,29.4412,-92.0613,1026.91,11111222 
WAVCIS,ioos:station:WAVCIS:CSI03:1,2016-12-10T16:00:00Z,29.4412,-92.0613,1027.04,11111222 
WAVCIS,ioos:station:WAVCIS:CSI03:1,2016-12-10T17:00:00Z,29.4412,-92.0613,1026.98,11111222 
WAVCIS,ioos:station:WAVCIS:CSI03:1,2016-12-10T18:00:00Z,29.4412,-92.0613,1025.51,11111222 
WAVCIS,ioos:station:WAVCIS:CSI03:1,2016-12-10T19:00:00Z,29.4412,-92.0613,1024.3,11111222 
WAVCIS,ioos:station:WAVCIS:CSI03:1,2016-12-10T20:00:00Z,29.4412,-92.0613,1023.3,11111222 
WAVCIS,ioos:station:WAVCIS:CSI03:1,2016-12-10T21:00:00Z,29.4412,-92.0613,1022.96,11111222 
WAVCIS,ioos:station:WAVCIS:CSI03:1,2016-12-10T22:00:00Z,29.4412,-92.0613,1022.86,11111222 
WAVCIS,ioos:station:WAVCIS:CSI03:1,2016-12-10T23:00:00Z,29.4412,-92.0613,1022.4,11111222 
WAVCIS,ioos:station:WAVCIS:CSI03:1,2016-12-11T00:00:00Z,29.4412,-92.0613,1021.83,11111222 
WAVCIS,ioos:station:WAVCIS:CSI03:1,2016-12-11T01:00:00Z,29.4412,-92.0613,1021.37,11111222 
WAVCIS,ioos:station:WAVCIS:CSI03:1,2016-12-11T02:00:00Z,29.4412,-92.0613,1021.75,11111222 
WAVCIS,ioos:station:WAVCIS:CSI03:1,2016-12-11T03:00:00Z,29.4412,-92.0613,1021.52,11111222 
WAVCIS,ioos:station:WAVCIS:CSI03:1,2016-12-11T04:00:00Z,29.4412,-92.0613,1021.12,11111222 
WAVCIS,ioos:station:WAVCIS:CSI03:1,2016-12-11T05:00:00Z,29.4412,-92.0613,1020.74,11111222 
WAVCIS,ioos:station:WAVCIS:CSI03:1,2016-12-11T06:00:00Z,29.4412,-92.0613,1019.83,11111222 
WAVCIS,ioos:station:WAVCIS:CSI03:1,2016-12-11T07:00:00Z,29.4412,-92.0613,1019.44,11111222 
WAVCIS,ioos:station:WAVCIS:CSI03:1,2016-12-11T08:00:00Z,29.4412,-92.0613,1017.84,11111222 
WAVCIS,ioos:station:WAVCIS:CSI03:1,2016-12-11T09:00:00Z,29.4412,-92.0613,1017.03,11111222 
WAVCIS,ioos:station:WAVCIS:CSI03:1,2016-12-11T10:00:00Z,29.4412,-92.0613,1016.65,11111222 
WAVCIS,ioos:station:WAVCIS:CSI03:1,2016-12-11T11:00:00Z,29.4412,-92.0613,1016.06,11111222 
WAVCIS,ioos:station:WAVCIS:CSI03:1,2016-12-11T12:00:00Z,29.4412,-92.0613,1016.2,11111222 
WAVCIS,ioos:station:WAVCIS:CSI03:1,2016-12-11T13:00:00Z,29.4412,-92.0613,1015.62,11111222 
WAVCIS,ioos:station:WAVCIS:CSI03:1,2016-12-11T14:00:00Z,29.4412,-92.0613,1014.92,11111222 
WAVCIS,ioos:station:WAVCIS:CSI03:1,2016-12-11T15:00:00Z,29.4412,-92.0613,1015.68,11111222 
WAVCIS,ioos:station:WAVCIS:CSI03:1,2016-12-11T16:00:00Z,29.4412,-92.0613,1015.58,11111222 
WAVCIS,ioos:station:WAVCIS:CSI03:1,2016-12-11T17:00:00Z,29.4412,-92.0613,1014.38,11111222 
WAVCIS,ioos:station:WAVCIS:CSI03:1,2016-12-11T18:00:00Z,29.4412,-92.0613,1013.97,11111222 
WAVCIS,ioos:station:WAVCIS:CSI03:1,2016-12-11T19:00:00Z,29.4412,-92.0613,1013.41,11111222 
WAVCIS,ioos:station:WAVCIS:CSI03:1,2016-12-11T20:00:00Z,29.4412,-92.0613,1012.44,11111222 
WAVCIS,ioos:station:WAVCIS:CSI03:1,2016-12-11T21:00:00Z,29.4412,-92.0613,1011.88,11111222 
WAVCIS,ioos:station:WAVCIS:CSI03:1,2016-12-11T22:00:00Z,29.4412,-92.0613,1011.33,11111222 